Regional Weather Roundup
Issued by NWS

Home | Current Version | Previous Version | Text Only | Print | Product List | Glossary Off
Versions: 1 2 3 4 5 6 7 8 9 10 11 12 13 14 15 16 17 18 19 20 21 22 23 24 25 26 27 28 29 30 31 32 33 34 35 36 37 38 39 40 41 42 43 44 45 46 47 48 49 50

000
ASUS43 KFSD 210110
RWRSD

WEATHER ROUNDUP FOR SOUTH DAKOTA
NATIONAL WEATHER SERVICE SIOUX FALLS SD
800 PM CDT THU JUL 20 2017

NOTE: "FAIR" INDICATES FEW OR NO CLOUDS BELOW 12,000 FEET WITH NO
SIGNIFICANT WEATHER AND/OR OBSTRUCTIONS TO VISIBILITY.


SDZ001>005-009-010-012>017-210200-
NORTHWEST AND NORTH CENTRAL SOUTH DAKOTA

CITY           SKY/WX    TMP DP  RH WIND       PRES   REMARKS
BUFFALO          N/A     68  64  87 E16       29.82F
FAITH            N/A     95  58  28 S18G30    29.81S
MOBRIDGE       CLOUDY    87  64  46 SE20      29.79F
$$

SDZ012>016-024>037-041>051-057-063-072>074-210200-
SOUTHWEST AND SOUTH CENTRAL SOUTH DAKOTA

CITY           SKY/WX    TMP DP  RH WIND       PRES   REMARKS
RAPID CTY ARPT SUNNY     93  58  30 S22       29.86F
PIERRE         NOT AVBL
CUSTER         SUNNY     83  52  34 S10G20    30.07F
ELLSWORTH AFB  SUNNY     94  58  29 S25G32    29.85F
PHILIP         SUNNY     97  56  25 S16G22    29.81S HX  95
PINE RIDGE     SUNNY     89  62  40 S15       29.92F
SPEARFISH      LGT RAIN  95  54  24 S17G25    29.85F
WINNER         FAIR      93  61  34 SE17      29.86F
$$

SDZ004>011-016>023-039-040-210200-
NORTHEAST SOUTH DAKOTA

CITY           SKY/WX    TMP DP  RH WIND       PRES   REMARKS
ABERDEEN       MOSUNNY   84  69  60 SE7       29.89R
WATERTOWN      SUNNY     81  62  52 SE9       29.92F
BROOKINGS      CLEAR     82  68  62 SE10      29.93F
SISSETON         N/A     82  70  66 SE8       29.90S
$$

SDZ017-020-022-023-036>040-048>070-210200-
SOUTHEAST SOUTH DAKOTA

CITY           SKY/WX    TMP DP  RH WIND       PRES   REMARKS
SIOUX FALLS    PTCLDY    84  69  60 SE14      29.91F
HURON          SUNNY     85  71  63 SE14      29.86F
CHAMBERLAIN    SUNNY     91  67  45 SE14      29.86S
MITCHELL       SUNNY     85  74  69 SE9       29.88F
YANKTON        CLEAR     84  74  71 E7        29.89F
$$

ABBREVIATIONS USED IN REMARKS
   TC - TEMPERATURE IN CELSIUS
  WCI - WIND CHILL INDEX
   HX - HEAT INDEX
  VSB - VISIBILITY





USA.gov is the U.S. government's official web portal to all federal, state and local government web resources and services.